GFSSE_850_dewp_000.txt.gz
Dewpoint
15 14 14 14 13 14 14 12 12 11 11 9 8 7 9 9 8 7 7 9 9 8 8 7 8 9 9 10 11 12 13 11 12 10 8 7 8 8 5 5 12 13 9
15 15 13 13 13 13 13 13 12 12 11 10 9 9 9 7 7 9 9 7 8 9 9 9 10 10 10 11 11 12 13 13 13 10 8 14 10 9 5 9 14 11 6
16 15 13 14 15 15 15 14 14 12 11 10 9 9 8 7 8 8 8 7 8 9 10 10 10 10 11 11 12 12 12 13 14 11 13 13 14 11 8 11 5 11 12
15 15 15 14 14 15 14 14 13 12 12 10 9 9 8 7 6 8 8 6 7 9 10 10 10 10 11 11 12 13 12 12 13 14 15 13 13 9 9 10 8 12 8
16 16 14 13 14 14 14 13 13 12 12 11 10 9 8 8 7 8 7 8 9 9 9 10 10 10 11 11 11 13 12 13 14 15 15 14 15 12 6 10 9 11 14
16 17 14 14 15 15 14 13 12 12 11 11 9 9 9 7 8 8 7 8 7 7 8 10 10 10 9 9 10 11 12 12 14 17 16 14 15 8 6 12 6 8 11
16 17 16 15 15 14 14 12 10 10 9 9 9 8 7 8 8 8 8 7 7 8 10 11 10 10 9 8 11 12 11 12 15 16 15 16 15 7 12 11 5 3 11
16 17 16 14 14 14 14 10 11 10 10 9 8 7 8 8 9 9 8 8 9 10 12 12 11 12 9 7 11 12 12 13 16 15 16 14 11 9 10 10 11 12 10
16 17 17 16 15 13 14 11 11 11 10 10 9 8 8 9 10 9 8 11 11 12 11 12 13 13 12 10 11 11 12 12 16 15 16 14 12 8 8 10 7 6 10
16 17 18 17 17 17 14 13 12 11 10 11 10 10 11 11 10 8 10 12 10 12 13 12 12 12 12 12 12 12 12 15 16 15 17 16 14 12 8 8 9 3 12
16 17 17 17 17 16 16 13 10 10 10 11 12 11 12 16 16 16 14 13 12 13 13 12 12 12 12 14 11 10 13 15 15 15 15 14 14 13 11 7 8 9 6
16 16 16 17 18 18 16 17 17 16 15 15 15 15 16 16 16 15 15 12 13 12 13 12 12 12 15 14 14 14 14 12 15 16 15 13 13 14 14 12 8 7 10
16 16 17 16 18 17 17 17 16 16 16 16 16 15 16 16 16 16 16 16 15 14 16 16 15 15 15 14 14 14 15 14 13 15 15 13 12 13 14 14 13 8 5
16 16 16 17 17 17 17 16 16 16 16 15 16 13 16 15 16 17 16 17 15 16 16 16 15 15 14 12 15 14 13 13 13 13 14 14 13 12 13 14 14 13 8
16 16 16 17 17 18 17 16 16 16 16 15 15 16 16 16 15 15 15 14 14 16 16 16 16 15 15 15 15 12 12 12 11 12 13 12 12 12 12 13 13 14 14
15 16 16 17 17 16 17 17 17 16 16 16 15 15 11 15 16 16 16 16 16 16 16 16 15 15 15 15 14 13 12 11 12 11 12 13 12 13 13 12 12 13 14
15 16 16 17 17 17 17 17 17 16 16 16 15 16 13 14 15 14 16 16 16 16 12 15 16 16 14 14 13 12 13 13 12 13 12 12 13 14 13 12 12 13 13
16 16 17 16 17 17 17 17 17 16 16 16 16 16 15 15 15 15 16 16 16 15 16 16 15 15 13 13 12 12 12 12 13 13 12 12 11 11 13 13 13 13 13
16 17 17 17 17 17 17 17 17 17 17 17 17 15 16 14 14 16 16 16 15 14 15 15 15 14 13 12 11 11 12 12 12 11 13 13 13 12 11 13 13 13 14
16 17 17 17 17 17 17 16 17 17 17 16 17 16 16 14 16 15 16 15 14 14 15 15 14 13 13 12 11 11 13 12 12 12 11 11 12 13 13 13 14 14 14
16 17 18 17 17 18 17 17 16 16 16 16 16 16 15 16 15 14 16 16 15 15 15 14 13 13 11 12 11 10 12 13 12 12 11 8 9 10 12 14 14 14 14
16 17 18 18 18 17 17 17 16 16 15 16 16 17 17 17 16 16 16 16 15 14 15 14 13 12 11 12 12 11 9 12 12 11 10 7 6 7 9 11 13 9 14
16 17 18 18 18 17 16 17 17 17 16 17 17 17 17 16 16 15 14 14 14 11 10 13 13 12 11 14 13 12 9 8 9 11 12 8 7 7 8 9 10 7 6
15 17 18 18 18 18 16 17 17 16 15 14 15 15 16 17 16 15 14 14 9 10 13 13 12 12 10 11 11 12 12 11 9 8 9 8 8 7 8 6 7 8 2
15 16 17 16 15 17 18 17 18 17 15 15 15 16 16 15 15 15 14 9 3 8 13 11 13 13 12 11 10 11 12 10 11 9 7 7 8 8 8 7 7 7 7
15 15 16 16 13 15 18 18 18 17 16 15 16 15 14 14 15 15 14 10 4 11 12 11 7 11 9 12 11 12 10 9 8 8 7 7 8 7 8 8 8 6 6

GFSSE_850_dewp_003.txt.gz
Dewpoint
16 15 15 15 14 13 12 11 11 9 6 6 8 10 10 10 8 8 9 9 9 8 9 10 10 10 11 11 12 13 12 12 11 6 11 10 7 5 6 9 14 13 9
16 15 14 14 13 13 12 12 12 10 10 9 10 10 7 8 9 9 7 8 9 9 10 10 10 11 11 12 12 12 14 13 10 12 14 14 10 6 8 13 15 9 11
16 15 14 13 14 13 12 12 12 11 11 10 10 8 8 8 8 6 6 7 7 9 9 10 11 11 11 12 13 12 12 13 13 13 14 15 12 9 9 5 9 11 10
15 15 15 15 15 15 14 13 12 11 10 10 9 8 6 6 8 7 6 7 8 8 9 10 11 11 11 11 12 13 13 13 13 13 15 15 15 7 10 8 10 8 12
15 16 14 15 15 15 14 13 12 12 9 9 10 8 7 7 8 7 7 8 7 7 9 10 10 10 10 10 10 11 12 13 14 14 15 14 16 8 10 8 12 10 14
16 17 13 14 15 14 13 12 12 12 11 10 10 8 8 7 8 7 8 6 6 8 10 11 10 10 9 10 11 12 11 12 14 15 15 12 15 10 10 9 12 9 9
17 16 15 14 15 14 12 11 11 11 10 10 9 9 8 8 9 8 8 6 8 10 12 12 10 12 8 8 12 11 11 14 16 17 16 16 14 9 10 7 5 6 12
17 16 15 14 14 14 12 11 10 10 9 9 9 8 8 8 9 10 7 8 9 11 12 12 13 12 10 9 11 11 12 13 17 16 16 16 12 7 8 7 12 6 9
16 17 17 16 14 13 11 10 10 10 10 9 8 8 8 9 10 8 8 9 11 12 12 12 13 12 12 10 11 12 12 14 17 16 15 16 12 8 7 3 5 9 11
16 17 16 16 17 17 12 11 11 11 10 10 9 8 8 10 9 8 9 12 10 11 14 12 11 11 11 11 11 9 14 15 15 15 16 15 14 11 8 7 3 4 10
16 16 16 16 17 17 17 13 12 11 10 11 11 11 11 15 16 14 15 11 12 13 12 11 10 11 14 14 14 13 14 14 15 15 16 14 14 14 12 9 11 4 10
16 16 15 16 17 17 15 15 16 15 15 15 15 14 15 16 16 15 15 13 12 11 12 13 12 14 14 14 14 14 14 14 14 14 15 14 12 13 14 12 9 11 8
14 14 16 16 16 16 16 16 15 16 16 15 16 16 16 16 16 16 16 16 15 14 17 16 15 15 15 15 14 14 14 14 13 13 15 15 13 12 13 14 13 9 7
15 14 16 17 16 16 16 16 16 15 15 15 16 17 16 16 16 15 16 16 15 16 14 16 15 15 16 16 15 15 13 12 11 12 13 14 13 13 13 14 14 13 8
14 15 15 16 17 17 16 15 15 15 14 15 15 16 16 15 16 15 15 16 16 15 16 15 15 15 15 15 15 14 13 12 11 10 12 13 11 12 12 12 13 14 13
14 15 15 16 17 17 16 18 16 15 15 14 15 15 16 16 16 16 16 16 15 14 15 15 16 15 15 14 13 14 13 12 12 13 11 12 12 12 12 12 12 12 14
14 15 15 16 17 17 17 17 16 15 15 15 14 16 16 16 17 15 16 16 15 14 15 15 15 14 13 11 12 12 12 12 12 13 12 11 12 13 12 12 12 13 13
14 15 16 15 16 17 17 17 17 15 16 15 15 15 16 17 16 17 16 16 15 16 15 15 14 14 12 11 11 11 12 12 12 13 12 12 11 11 13 14 13 12 13
15 16 16 16 16 17 17 17 17 16 16 16 16 16 17 16 17 17 16 15 16 15 15 16 14 13 11 11 11 10 12 12 12 11 12 12 13 13 11 13 12 12 13
14 16 17 17 17 17 17 16 17 17 17 17 17 17 17 17 17 17 16 16 16 15 15 15 14 12 12 13 11 10 12 12 12 11 10 9 12 12 14 14 15 15 13
14 16 17 17 17 17 18 17 17 17 16 16 15 17 18 17 17 16 15 16 16 15 15 13 13 11 12 12 11 11 12 12 12 11 9 8 9 9 12 13 14 15 14
15 16 17 17 17 17 18 17 17 16 15 15 15 16 17 16 17 16 16 15 15 15 15 15 14 12 11 12 11 10 10 13 12 11 10 8 7 8 10 12 13 8 14
15 16 17 17 17 17 17 17 17 17 15 16 15 17 17 17 17 16 16 13 16 14 9 14 13 12 11 12 11 12 9 11 10 12 11 9 8 8 8 10 11 10 6
14 16 17 17 17 18 17 17 17 16 15 13 13 14 15 18 17 17 16 16 16 10 12 12 12 11 11 11 11 12 9 11 10 11 10 10 9 8 8 7 7 9 9
14 15 17 17 18 18 18 17 17 16 14 14 13 14 16 17 17 16 16 16 15 10 11 10 13 9 13 11 10 10 12 10 9 9 7 8 8 8 8 8 7 7 7
14 15 16 17 18 17 18 16 16 16 15 13 14 16 15 15 16 15 15 16 15 10 13 13 13 13 12 12 12 11 10 8 8 8 7 7 8 8 8 8 8 8 7

GFSSE_850_dewp_006.txt.gz
Dewpoint
15 15 14 14 14 14 11 9 9 6 6 7 9 10 9 8 9 8 8 8 8 10 10 10 10 11 12 11 13 12 12 9 9 13 11 8 4 5 8 14 15 11 7
15 15 14 13 14 12 10 9 7 6 8 9 9 8 8 9 8 7 8 9 9 10 10 11 11 10 12 12 12 12 13 11 13 14 15 13 8 6 13 14 13 7 7
16 14 14 13 13 11 11 10 9 8 9 10 8 8 8 7 6 7 7 8 9 9 10 11 11 11 11 13 12 12 11 12 14 15 15 15 9 8 6 13 11 9 11
15 15 13 14 12 12 12 11 9 9 11 10 8 7 7 8 6 6 7 7 8 9 10 10 10 10 10 10 12 12 13 12 13 15 15 14 12 9 7 9 9 11 11
15 15 14 14 13 12 12 12 11 11 10 10 8 7 7 7 6 6 7 5 6 9 10 10 10 10 9 10 11 11 11 13 14 15 15 14 14 8 6 11 8 12 12
16 15 15 15 15 14 13 12 11 10 10 10 9 8 7 6 6 7 6 7 8 10 11 11 11 10 7 10 11 10 11 14 15 15 14 15 9 8 6 11 10 11 8
16 14 14 15 14 14 13 12 12 11 10 10 9 8 7 7 7 8 5 8 8 11 11 11 12 10 6 10 10 11 12 15 15 16 16 16 14 11 6 6 5 10 7
16 16 14 14 14 13 12 12 11 11 10 10 9 8 6 7 9 9 6 9 10 11 12 12 12 12 10 10 11 11 12 14 15 15 16 16 12 7 7 9 5 6 9
16 17 15 14 14 12 11 11 10 10 9 9 8 6 7 8 10 7 9 10 10 12 13 11 11 11 11 11 9 13 14 15 15 16 15 14 10 8 5 5 10 7 6
16 17 17 15 13 12 10 10 10 9 8 7 6 6 7 11 11 12 11 12 11 12 12 11 9 10 14 14 12 14 14 15 15 15 9 14 14 9 8 3 6 9 9
16 16 16 17 15 15 11 11 11 10 9 8 7 7 11 13 15 17 16 14 12 11 11 10 9 14 14 14 14 13 14 14 16 15 15 14 12 13 10 8 5 8 10
15 16 16 16 16 15 16 12 11 10 10 11 11 11 15 16 15 16 15 15 13 12 15 14 15 16 15 15 14 14 14 13 14 14 15 15 13 12 14 10 9 7 10
16 15 15 14 15 16 16 13 13 14 15 14 16 16 15 15 15 16 16 10 16 13 13 16 15 16 14 13 13 14 13 13 12 13 14 14 13 13 12 14 13 11 9
15 16 17 15 15 16 15 14 15 16 15 15 15 14 15 15 15 15 16 15 16 15 16 15 15 14 14 14 15 15 12 13 11 12 11 13 13 11 12 14 15 9 10
13 16 16 15 15 15 16 15 15 15 14 15 15 16 13 16 16 15 16 15 15 16 15 15 14 14 13 13 12 13 13 12 12 11 12 12 12 10 12 12 13 13 9
13 14 15 16 15 17 15 15 15 13 15 14 15 14 15 14 16 15 16 14 13 15 14 14 14 13 13 14 12 12 12 13 12 13 12 12 12 12 12 12 12 12 14
13 14 15 16 16 15 16 16 16 16 14 14 13 15 15 14 14 16 15 14 15 14 14 14 15 14 14 12 11 11 12 12 12 10 12 12 12 11 12 12 12 12 12
14 14 15 15 17 16 15 16 15 15 14 14 15 15 15 15 14 15 15 16 15 15 13 15 15 14 13 11 10 12 11 12 10 12 12 10 11 12 11 12 13 12 12
14 14 15 15 15 16 16 17 16 16 15 15 15 16 16 16 16 15 16 16 15 15 14 14 15 14 12 11 11 10 11 12 11 12 11 12 11 12 13 13 13 10 11
14 15 15 15 16 16 16 15 17 15 16 15 16 16 16 15 15 16 15 16 15 14 15 14 14 13 11 11 12 10 12 13 12 10 10 11 12 12 14 15 13 15 13
14 15 15 16 16 17 18 17 17 16 15 15 13 14 16 15 15 14 14 14 15 14 16 15 12 7 12 11 10 11 12 12 11 10 8 9 8 9 10 13 14 14 15
13 14 15 16 16 16 17 17 16 15 14 15 16 16 13 15 14 14 14 14 16 15 14 14 11 6 11 11 9 11 12 12 12 10 9 8 6 8 10 12 11 12 13
13 14 15 16 17 17 16 17 16 17 17 16 16 15 15 16 15 17 16 15 15 15 11 12 12 9 12 13 12 11 13 12 12 12 10 9 8 7 8 8 8 6 8
13 14 15 16 16 17 16 17 16 16 17 16 15 14 13 15 15 16 13 14 16 13 12 11 10 6 9 12 11 11 9 9 12 12 11 10 9 8 8 6 7 8 7
13 15 15 16 17 16 16 17 17 17 14 13 12 13 14 15 16 17 16 15 14 6 10 10 10 3 12 11 10 10 11 9 7 8 11 9 9 8 8 8 7 5 7
13 15 15 16 18 17 17 17 17 17 15 14 14 15 15 16 16 15 16 14 14 5 9 7 5 3 11 12 11 11 11 9 10 9 8 7 8 8 9 8 9 8 8

GFSSE_850_dewp_009.txt.gz
Dewpoint
15 14 14 14 14 13 12 8 7 6 8 9 10 8 8 8 8 8 8 9 9 10 10 10 10 12 12 12 12 11 9 9 11 12 8 6 5 12 13 12 12 8 6
14 15 14 14 13 11 11 6 5 8 9 9 8 7 9 7 8 8 8 9 9 10 10 11 10 11 12 12 11 12 12 12 13 14 12 9 7 13 14 13 10 7 7
15 14 13 13 11 10 8 6 6 9 9 8 8 8 6 6 7 7 7 8 9 10 10 10 9 10 11 12 12 12 13 14 15 14 13 12 7 10 14 11 9 9 6
14 13 13 12 11 10 7 6 7 9 8 8 8 7 6 6 6 7 6 7 9 10 10 9 9 9 10 10 11 13 13 14 14 15 15 13 9 6 8 10 10 11 6
13 13 13 12 12 10 9 7 8 9 8 8 6 6 7 6 6 5 5 6 9 11 11 10 10 7 9 10 10 11 13 14 15 14 15 15 8 7 9 8 12 9 9
14 13 13 12 12 12 10 9 8 9 9 8 7 7 7 6 6 5 7 8 10 12 11 12 8 6 9 9 11 11 13 14 14 14 14 14 9 6 10 10 11 7 10
15 14 14 13 12 12 11 10 9 9 9 9 8 8 7 6 7 5 8 9 11 11 12 12 12 8 10 10 11 11 14 15 16 15 15 15 8 7 10 7 10 8 9
14 14 14 14 14 13 12 11 9 9 9 10 9 8 7 7 8 6 9 11 11 12 12 11 11 10 10 10 13 14 14 15 14 14 15 15 8 7 6 4 9 9 9
14 14 14 13 13 12 12 12 11 10 10 10 9 7 6 9 8 8 10 10 11 12 11 10 10 14 12 13 14 15 15 15 13 8 11 14 10 7 4 10 6 11 6
15 14 14 13 12 12 11 11 10 10 9 9 8 6 7 11 12 14 14 13 12 12 10 12 14 14 14 13 13 14 14 14 14 13 13 13 14 9 5 4 8 12 9
15 14 14 13 11 11 10 9 9 8 8 7 6 7 11 12 15 16 15 15 12 11 11 11 15 15 14 14 14 15 14 13 13 12 15 14 12 13 9 7 6 10 10
16 16 14 13 11 10 9 9 9 9 8 7 7 11 15 13 15 16 15 14 13 12 14 14 14 14 14 13 13 14 13 13 13 13 14 14 14 13 13 9 7 5 10
15 16 16 15 14 13 10 10 10 9 10 10 10 14 15 15 15 11 10 11 14 14 14 14 14 14 14 12 13 14 11 12 12 13 12 13 13 13 12 13 8 6 5
15 16 15 14 15 16 16 14 12 14 14 14 15 13 14 16 15 14 10 13 15 14 14 14 14 14 13 13 12 12 11 10 12 11 11 12 12 11 12 13 12 6 9
15 16 15 14 13 16 15 14 14 15 14 15 14 15 14 14 15 14 13 14 15 15 13 14 14 13 12 13 13 12 10 12 12 11 11 12 12 11 12 12 13 12 8
16 15 15 14 14 15 15 14 14 15 16 15 16 16 15 14 13 15 15 15 14 14 15 13 13 13 12 12 13 11 11 12 11 12 11 12 12 12 12 12 12 13 12
15 14 15 14 15 13 15 15 15 15 14 13 15 14 15 15 14 13 14 14 14 14 14 13 13 14 13 11 11 10 11 11 11 10 12 12 13 11 13 12 12 12 12
13 15 15 15 15 15 14 15 15 15 13 13 14 14 16 15 15 14 14 14 15 15 15 14 12 13 13 12 10 11 10 11 10 11 11 10 11 11 11 12 12 12 12
13 14 14 15 16 15 14 14 14 15 14 14 13 15 16 15 15 14 15 15 16 15 16 14 13 15 12 7 10 11 10 11 11 10 11 10 12 12 12 14 13 12 12
13 14 14 15 15 16 15 13 14 14 14 13 14 15 15 15 15 12 15 14 15 16 13 13 12 11 9 11 11 10 10 11 12 10 10 12 11 12 12 14 12 14 11
13 14 14 15 15 16 16 16 15 15 15 15 14 14 14 15 14 15 15 14 14 15 13 14 12 7 11 11 11 11 10 12 10 9 9 8 8 8 10 11 13 13 14
13 13 14 14 14 17 16 16 16 14 16 14 14 13 14 14 15 13 14 13 14 14 14 13 10 4 11 11 11 9 12 12 11 10 10 7 7 9 9 9 8 8 12
13 14 14 14 15 16 17 17 17 16 15 15 15 15 17 16 15 13 15 14 14 15 14 12 10 6 12 11 11 11 13 13 12 11 10 9 8 7 5 4 7 7 6
12 13 13 14 15 15 16 16 16 15 14 15 16 15 16 15 15 14 13 14 15 15 14 11 9 1 10 12 11 11 8 11 12 12 12 9 9 8 8 6 6 5 6
12 12 13 14 14 15 16 16 16 15 14 15 16 16 14 14 16 15 15 14 13 14 10 3 3 -2 10 11 11 11 11 8 8 10 12 10 9 9 8 8 8 7 6
12 13 13 14 14 15 16 16 15 16 14 15 15 14 15 15 15 13 15 15 12 12 5 4 5 -2 4 11 10 10 10 10 9 10 10 9 9 9 9 9 9 9 8